Regional Weather Roundup
Issued by NWS

Home | Current Version | Previous Version | Graphics & Text | Print | Product List | Glossary On
Versions: 1 2 3 4 5 6 7 8 9 10 11 12 13 14 15 16 17 18 19 20 21 22 23 24 25 26 27 28 29 30 31 32 33 34 35 36 37 38 39 40 41 42 43 44 45 46 47 48 49 50
000
ASUS44 KMEG 051610
RWRTN
TENNESSEE HOURLY STATE WEATHER ROUNDUP
NATIONAL WEATHER SERVICE MEMPHIS TN
1100 AM CDT SUN JUL 05 2015

TNZ002-004-019-021-049-052-054-088>092-051700-
WEST TENNESSEE

CITY           SKY/WX    TMP DP  RH WIND       PRES   REMARKS
MEMPHIS INTL   CLOUDY    80  70  71 S3        30.07F
NWS MEMPHIS      N/A     80 N/A N/A MISG        N/A
JACKSON        PTSUNNY   82  71  69 S9        30.09R
DYERSBURG        N/A    N/A N/A N/A MISG        N/A
PARIS          CLOUDY    79  68  69 E3        30.09S
LEXINGTON      MOSUNNY   79  70  73 CALM      30.09R
$$

TNZ008-025-027-028-033-062-065-066-051700-
NORTH MIDDLE TENNESSEE

CITY           SKY/WX    TMP DP  RH WIND       PRES   REMARKS
NASHVILLE      CLOUDY    75  71  87 NE6       30.10S FOG
CLARKSVILLE    MOSUNNY   79  69  71 CALM      30.07F
SMYRNA         PTSUNNY   76  71  84 CALM      30.10S
COOKEVILLE     PTSUNNY   75  72  88 VRB6      30.08F
CROSSVILLE     CLOUDY    70  66  87 NW6       30.12S
$$

TNZ061-075-076-078-094-096-097-051700-
SOUTH MIDDLE TENNESSEE

CITY           SKY/WX    TMP DP  RH WIND       PRES   REMARKS
FAYETTEVILLE   CLOUDY    72  68  88 VRB6      30.14R
TULLAHOMA      MOSUNNY   75  68  78 VRB6      30.13R
WINCHESTER     CLOUDY    72  68  88 VRB5      30.13R
MCMINNVILLE    PTSUNNY   73  73 100 VRB3      30.10S
COLUMBIA       PTSUNNY   79  72  78 SW5       30.10R
SHELBYVILLE    MOSUNNY   79  72  78 NW8         N/A
$$

TNZ017-018-042-046-047-051700-
NORTHEAST TENNESSEE

CITY           SKY/WX    TMP DP  RH WIND       PRES   REMARKS
TRI CITIES     MOSUNNY   79  67  66 SE6       30.09F
ELIZABETHTON   SUNNY     81  64  57 W5        30.09F
$$

TNZ012-013-036-069-073-074-051700-
CENTRAL EAST TENNESSEE

CITY           SKY/WX    TMP DP  RH WIND       PRES   REMARKS
KNOXVILLE      PTSUNNY   75  67  76 S14       30.07S
OAK RIDGE      LGT RAIN  71  68  90 SW7       30.09S FOG
GATLINBURG     PTSUNNY   73  66  78 CALM      30.07F
MORRISTOWN     SUNNY     75  70  83 SW6       30.09F
$$

TNZ083-085-099-051700-
SOUTHEAST TENNESSEE

CITY           SKY/WX    TMP DP  RH WIND       PRES   REMARKS
CHATTANOOGA    PTSUNNY   74  67  78 SW10      30.11R
$$

SKY/WX REPORTED AS FAIR MEANS FEW OR NO CLOUDS BELOW
12 THOUSAND FEET.




USA.gov is the U.S. government's official web portal to all federal, state and local government web resources and services.